Location: Aressy
(43.2833°N, 0.3167°W)
Time: 20:48:38
(UTC+00:00)

Cosmos 1346 Rocket - Pass Details

Date: 28 January 2021
Orbit: 531 x 546 km, 81.2° (Epoch: 02 March)

Event Time Altitude Azimuth Distance (km) Brightness Sun altitude
Rises 18:04:14 0° 169° (S) 2,662 6.4 -10.4°
Reaches altitude 10° 18:06:28 10° 160° (SSE) 1,778 5.4 -10.8°
Maximum altitude 18:10:04 36° 94° (E) 863 3.3 -11.5°
Drops below altitude 10° 18:13:42 10° 27° (NNE) 1,797 5.1 -12.1°
Enters shadow 18:14:49 - 22° (NNE) 2,231 5.6 -12.3°
